Tracking 30918 objects as of 2-Jul-2025
HD Live streaming from Space Station
objects crossing your sky now

STARLINK-5930

Track STARLINK-5930 now!
10-day predictions
STARLINK-5930 is classified as:


NORAD ID: 55928
Int'l Code: 2023-037Q
Perigee: 577.0 km
Apogee: 581.3 km
Inclination: 70.0 °
Period: 96.1 minutes
Semi major axis: 6950 km
RCS: Unknown
Launch date: March 17, 2023
Source: United States (US)
Launch site: AIR FORCE WESTERN TEST RANGE (AFWTR)
Your satellite tracking list
DMSP 5D-2 F13 DEB
Track 1 satellite(s)




NASA's NSSDC Master Catalog

Two Line Element Set (TLE):
1 55928U 23037Q   25182.82382488  .00001389  00000-0  12412-3 0  9999
2 55928  69.9993 216.8221 0003073 269.0699  91.0108 14.98346556125910
Source of the keplerian elements: AFSPC